Wind_Speed
10 9 10 9 8 8 8 8 10 11 11 12 14 13 12 11 10 11 12 13 14 16
9 8 9 8 8 8 8 7 9 11 11 11 11 11 11 10 10 12 13 15 15 16
8 7 8 8 8 7 7 8 10 11 11 11 11 11 10 10 11 13 13 14 17 17
7 7 7 7 6 6 6 9 10 10 10 10 11 12 10 12 12 14 15 15 16 18
7 6 5 5 5 6 7 9 10 9 9 10 12 12 10 13 13 14 16 17 19 20
6 4 3 3 4 5 8 9 9 8 10 10 11 10 10 12 14 15 16 17 19 21
5 3 1 2 4 6 8 8 8 8 9 9 10 9 11 14 16 16 17 18 19 20
6 3 1 2 4 6 8 8 9 8 8 9 9 8 12 15 17 18 19 19 19 20
6 4 2 3 5 6 6 7 7 8 9 9 9 10 13 16 19 19 19 20 21 23
7 4 3 3 5 6 7 8 8 9 9 10 10 11 15 17 19 18 19 21 23 24
7 5 4 4 5 6 8 9 10 10 11 11 11 12 15 18 18 19 20 22 23 24
7 5 4 4 5 7 8 9 9 10 11 11 12 13 16 18 20 20 21 23 24 24
7 5 4 4 5 6 8 9 11 11 10 11 13 14 15 18 20 21 23 24 24 24
7 5 5 5 5 6 7 10 11 11 10 11 12 13 16 18 21 21 25 25 26 27
Wind_Direction
120 101 92 78 65 58 53 36 23 25 22 14 7 6 6 5 11 4 358 352 350 341
109 101 90 80 68 66 50 33 21 15 10 9 10 7 4 4 2 355 350 345 338 337
111 92 81 79 68 55 40 26 12 6 8 8 5 3 2 358 349 347 343 338 333 333
114 100 91 74 53 41 27 14 3 1 6 7 4 355 348 347 340 339 337 336 331 325
126 111 85 57 40 22 12 1 355 358 5 1 351 348 341 336 334 335 333 332 328 325
134 111 81 47 26 5 355 350 353 1 357 348 344 340 334 332 328 329 329 326 323 320
149 145 108 17 359 349 346 345 347 351 346 342 340 338 333 329 327 324 323 322 319 316
167 179 285 325 330 336 340 338 338 338 341 339 340 333 335 329 322 322 323 323 320 316
183 206 252 291 319 329 332 330 331 337 336 337 335 330 331 327 322 321 322 323 321 319
197 214 223 285 315 321 323 325 333 338 333 332 331 331 332 327 324 321 323 324 323 320
205 211 221 281 308 314 319 326 335 332 327 327 326 330 332 329 324 321 325 326 323 320
212 214 232 280 302 313 319 326 329 325 322 323 324 328 331 331 326 323 325 326 322 321
222 227 240 282 298 307 316 319 320 319 318 315 322 328 331 329 326 322 325 325 322 323
228 235 250 273 289 300 312 313 314 318 318 316 321 326 329 329 328 328 326 325 322 322
Height
893 893 893 894 895 895 896 895 893 891 890 888 885 883 881 880 877 875 874 872 870 868
894 893 893 893 894 895 895 895 893 891 889 887 885 882 880 879 877 875 872 870 868 866
893 893 893 894 894 894 893 892 892 890 888 886 885 882 880 878 875 873 871 869 866 863
893 893 893 893 894 893 893 891 891 889 886 885 883 881 879 876 874 871 869 867 864 861
892 892 893 893 893 893 892 890 890 888 885 883 882 879 877 875 872 870 867 864 861 857
892 892 893 892 892 892 891 890 888 885 884 882 880 878 876 873 871 867 865 862 858 854
891 891 891 891 890 890 889 888 886 883 882 880 879 877 874 871 868 865 861 858 854 851
889 890 889 888 888 887 886 885 884 882 880 878 876 875 872 869 866 861 857 854 850 846
886 887 886 886 886 885 884 883 882 879 878 876 874 872 870 867 862 857 853 849 845 841
884 884 884 884 885 884 882 881 879 876 875 873 871 869 867 863 859 854 849 845 841 836
882 881 881 881 881 881 880 877 875 873 872 870 868 866 863 860 856 850 845 840 836 832
879 878 877 877 877 877 876 874 872 871 869 867 865 862 861 858 853 847 841 836 832 828
875 875 874 874 875 875 874 872 870 868 866 864 862 859 857 855 850 844 838 833 828 823
872 872 872 872 872 872 871 870 868 865 863 861 859 856 854 852 847 841 834 829 824 818